Regional Weather Roundup
Issued by NWS

Home | Current Version | Previous Version | Text Only | Print | Product List | Glossary On
Versions: 1 2 3 4 5 6 7 8 9 10 11 12 13 14 15 16 17 18 19 20 21 22 23 24 25 26 27 28 29 30 31 32 33 34 35 36 37 38 39 40 41 42 43 44 45 46 47 48 49 50
000
ASUS44 KJAN 010710
RWRMS

MISSISSIPPI HOURLY WEATHER ROUNDUP
NATIONAL WEATHER SERVICE JACKSON MS
200 AM CDT SAT NOV 01 2014

NOTE: "FAIR: INDICATES FEW OR NO CLOUDS BELOW 12,000 FEET WITH NO
SIGNIFICANT WEATHER AND/OR OBSTRUCTIONS TO VISIBILITY.

MSZ001>002-007>008-010>013-018>021-025>028-034>036-010800-
NORTHWEST MISSISSIPPI

CITY           SKY/WX    TMP DP  RH WIND       PRES   REMARKS
CLARKSDALE     FAIR      39  28  65 N14       30.35S WCI  31
CLEVELAND      FAIR      38  31  74 N8        30.34R WCI  32
GREENWOOD      CLEAR     36  27  69 CALM      30.32S
GREENVILLE     CLEAR     41  26  55 N8        30.34R
GRENADA        FAIR      34  28  80 CALM      30.32S
OLIVE BRANCH   CLEAR     36  27  69 NW14      30.32R WCI  27
OXFORD         FAIR      36  23  60 NW9       30.31S WCI  29
TUNICA         SUNNY     37  27  65 N13       30.35S WCI  29
$$

MSZ003>006-009-014>017-022>024-029>033-037>039-010800-
NORTHEAST MISSISSIPPI

CITY           SKY/WX    TMP DP  RH WIND       PRES   REMARKS
COLUMBUS AFB   CLEAR     38  26  61 NW9       30.25S WCI  32
CORINTH        FAIR      36  25  64 NW6       30.24S WCI  31
GOLDN TRIANGLE CLEAR    N/A N/A N/A NW8       30.24S
STARKVILLE     FAIR      37  28  70 NW3       30.26S
TUPELO         CLEAR     38  24  57 N10       30.25S WCI  31
$$

MSZ040-058-010800-
CENTRAL MISSISSIPPI

CITY           SKY/WX    TMP DP  RH WIND       PRES   REMARKS
JACKSON INTL   CLEAR     44  21  40 N9        30.29S
JACKSON HAWKNS CLEAR     42  20  41 VRB5      30.30R
MERIDIAN KEY   CLEAR     40  24  53 N9        30.25F WCI  34
MERIDIAN NAS   CLEAR     39  24  55 NW7       30.25F WCI  34
RAYMOND        FAIR      39  36  87 CALM      30.31R
VICKSBURG      CLEAR     43  27  53 NE10      30.32S
$$

MSZ059>079-010800-
SOUTH MISSISSIPPI

CITY           SKY/WX    TMP DP  RH WIND       PRES   REMARKS
BROOKHAVEN     FAIR      43  21  42 N5        30.29R
HATTIESBURG    CLEAR     47  23  38 N10       30.26R
MCCOMB         CLEAR     48  23  37 N15G25    30.26R
NATCHEZ        CLEAR     45  25  45 N8        30.30R
PINE BELT      CLEAR     43  21  42 N9G17     30.27R
$$

MSZ080>082-010800-
COASTAL MISSISSIPPI

CITY           SKY/WX    TMP DP  RH WIND       PRES   REMARKS
BILOXI         CLEAR     53  36  52 N24       30.18R
PASCAGOULA     CLEAR     50  33  52 N16G26    30.17R
GULFPORT       CLEAR     52  35  52 N20G30    30.18R
$$



USA.gov is the U.S. government's official web portal to all federal, state and local government web resources and services.